Miscellaneous Local Product
Issued by NWS Hastings, NE

Home | Current Version | Previous Version | Text Only | Print | Product List | Glossary On
Versions: 1 2 3 4 5 6 7 8 9 10 11 12 13 14 15 16 17 18 19 20 21 22 23 24 25 26 27 28 29 30 31 32 33 34 35 36 37 38 39 40 41 42 43 44 45 46 47 48 49 50
000
AXUS43 KGID 290902
MISGRI

GID CWA HOURLY WEATHER ROUNDUP
NATIONAL WEATHER SERVICE HASTINGS NE
400 AM CDT FRI APR 29 2016

NOTE: "FAIR" INDICATES FEW OR NO CLOUDS BELOW 12,000 FEET WITH NO
SIGNIFICANT WEATHER AND/OR OBSTRUCTIONS TO VISIBILITY.

...SOUTH CENTRAL NEBRASKA...

CITY           SKY/WX    TMP DP  RH WIND       PRES   REMARKS
GRAND ISLAND   CLOUDY    40  38  93 N5        30.13R
HASTINGS       CLOUDY    42  39  89 N6        30.10F
KEARNEY        CLOUDY    43  39  87 NE5       30.12R
ORD            CLOUDY    41  39  93 S5        30.10S
YORK           CLOUDY    43  39  87 CALM      30.12S
AURORA         CLOUDY    41  40  95 NW3       30.12R
LEXINGTON      CLOUDY    42  40  91 NE6       30.11S
HOLDREGE       CLOUDY    43  40  91 NE6       30.09S
HEBRON         CLOUDY    46  40  80 N7        30.10F

...NEBRASKA PANHANDLE...

CITY           SKY/WX    TMP DP  RH WIND       PRES   REMARKS
CHADRON        CLOUDY    37  35  92 NE5       30.11F WCI  33
ALLIANCE       CLOUDY    37  35  92 NE6       30.08S WCI  32
SCOTTSBLUFF    CLOUDY    34  32  92 E10       30.08F WCI  26
SIDNEY         CLOUDY    34  33  96 E5        30.08R FOG     WCI  30

...WESTERN AND NORTH CENTRAL NEBRASKA...

CITY           SKY/WX    TMP DP  RH WIND       PRES   REMARKS
VALENTINE      CLOUDY    39  37  92 N8        30.09F WCI  33
AINSWORTH      CLOUDY    39  39  99 NW6       30.09S WCI  35
ONEILL         CLOUDY    41  39  93 CALM      30.11S FOG
BROKEN BOW     CLOUDY    41  38  89 CALM      30.11R
IMPERIAL       CLOUDY    41  38  89 E6        30.08S
NORTH PLATTE   CLOUDY    41  38  89 NE7       30.11R
MCCOOK         CLOUDY    44  40  85 E5        30.09R

...EASTERN NEBRASKA...

CITY           SKY/WX    TMP DP  RH WIND       PRES   REMARKS
NORFOLK        CLOUDY    42  38  85 CALM      30.12R
SO SIOUX CITY  CLOUDY    43  38  82 CALM      30.13S
TEKAMAH        CLOUDY    44  41  89 N5        30.13R
COLUMBUS       CLOUDY    43  34  70 NW6       30.12F
ALBION         CLOUDY    42  38  86 NW3       30.12R
OMAHA EPPLEY   CLOUDY    45  42  89 N5        30.12S
OFFUTT AFB     CLOUDY    45  42  89 N5        30.11F
MILLARD        CLOUDY    46  40  82 CALM      30.12F
LINCOLN        CLOUDY    46  40  79 NW5       30.13F
NEBRASKA CITY  CLOUDY    45  39  79 CALM      30.12S
BEATRICE       CLOUDY    46  41  84 NE10      30.09F
FALLS CITY     CLOUDY    48  41  76 N7        30.11F

...NORTHERN KANSAS...

CITY           SKY/WX    TMP DP  RH WIND       PRES   REMARKS
GOODLAND       RAIN      40  38  93 E12       30.05F FOG     WCI  33
HILL CITY      CLOUDY    47  43  86 NE8       30.08F
NORTON         CLOUDY    43  37  81 NE7       30.10R
PHILLIPSBURG   CLOUDY    46  43  87 CALM      30.09F
SMITH CENTER   CLOUDY    45  39  81 NE8       30.10S
BELOIT         CLOUDY    45  39  81 N16       30.06F
HAYS           CLOUDY    46  37  71 NE13      30.04F
RUSSELL        LGT RAIN  47  44  90 NE15      30.04R
CONCORDIA      CLOUDY    47  39  74 N14       30.06F
SALINA         CLOUDY    50  45  83 N15       30.01F
TOPEKA         CLOUDY    49  45  86 N9        30.03F



USA.gov is the U.S. government's official web portal to all federal, state and local government web resources and services.